This is the latest recevied weather packets stored in our database for station/object LX1CU-13. If no packets are shown the sender has not sent any weather packets the latest 10 day(s).
| Time | Temp. | Humidity | Pressure | Rain* | Wind** | Luminosity | Snow |
|---|---|---|---|---|---|---|---|
| 1777467829 | 25.56° C | 27% | 1017.6 hPa | 0 mm | - | - | - |
| 1777467529 | 26.11° C | 27% | 1017.7 hPa | 0 mm | - | - | - |
| 1777466329 | 26.67° C | 27% | 1017.6 hPa | 0 mm | - | - | - |
| 1777466029 | 27.22° C | 27% | 1017.5 hPa | 0 mm | - | - | - |
| 1777465729 | 26.67° C | 27% | 1017.6 hPa | 0 mm | - | - | - |
| 1777465429 | 26.67° C | 26% | 1017.5 hPa | 0 mm | - | - | - |
| 1777465129 | 27.22° C | 28% | 1017.7 hPa | 0 mm | - | - | - |
| 1777464829 | 26.67° C | 28% | 1017.6 hPa | 0 mm | - | - | - |
| 1777464529 | 26.11° C | 28% | 1017.7 hPa | 0 mm | - | - | - |
| 1777464229 | 25.56° C | 28% | 1017.9 hPa | 0 mm | - | - | - |
| 1777463629 | 25.56° C | 28% | 1017.9 hPa | 0 mm | - | - | - |
| 1777462729 | 25° C | 29% | 1018 hPa | 0 mm | - | - | - |
| 1777462429 | 24.44° C | 29% | 1017.9 hPa | 0 mm | - | - | - |
| 1777462129 | 23.89° C | 29% | 1017.7 hPa | 0 mm | - | - | - |
| 1777461829 | 23.89° C | 29% | 1017.8 hPa | 0 mm | - | - | - |
| 1777461529 | 23.89° C | 29% | 1017.9 hPa | 0 mm | - | - | - |
| 1777461229 | 23.89° C | 29% | 1017.9 hPa | 0 mm | - | - | - |
| 1777460929 | 23.89° C | 30% | 1018 hPa | 0 mm | - | - | - |
| 1777460629 | 23.89° C | 29% | 1018.1 hPa | 0 mm | - | - | - |
| 1777460329 | 23.89° C | 29% | 1018.1 hPa | 0 mm | - | - | - |
| 1777460029 | 24.44° C | 29% | 1018.3 hPa | 0 mm | - | - | - |
| 1777459729 | 25° C | 29% | 1018.1 hPa | 0 mm | - | - | - |
| 1777459129 | 23.89° C | 30% | 1018.1 hPa | 0 mm | - | - | - |
| 1777458829 | 23.89° C | 29% | 1018 hPa | 0 mm | - | - | - |
| 1777458529 | 23.89° C | 29% | 1018.1 hPa | 0 mm | - | - | - |
* Rain latest hour (hover to see other rain measurements)
** Current wind speed in m/s (hover to see current wind gust speed)